TimeCST,TemperatureF,Dew PointF,Humidity,Sea Level PressureIn,VisibilityMPH,Wind Direction,Wind SpeedMPH,Gust SpeedMPH,PrecipitationIn,Events,Conditions,WindDirDegrees,DateUTC
12:15 AM,24.8,15.8,69,30.11,10.0,NNW,18.4,23.0,N/A,,Clear,340,2013-02-03 06:15:00
12:35 AM,24.8,15.8,69,30.12,10.0,NNW,18.4,24.2,N/A,,Clear,330,2013-02-03 06:35:00
12:55 AM,23.0,15.8,74,30.13,10.0,NNW,16.1,-,N/A,,Clear,330,2013-02-03 06:55:00
1:35 AM,21.2,12.2,68,30.14,10.0,NNW,17.3,23.0,N/A,,Clear,330,2013-02-03 07:35:00
1:55 AM,21.2,12.2,68,30.15,10.0,NNW,13.8,19.6,N/A,,Clear,330,2013-02-03 07:55:00
2:15 AM,19.4,12.2,74,30.16,10.0,NW,13.8,21.9,N/A,,Clear,320,2013-02-03 08:15:00
2:35 AM,19.4,12.2,74,30.17,10.0,NNW,12.7,18.4,N/A,,Clear,330,2013-02-03 08:35:00
2:55 AM,19.4,10.4,68,30.16,10.0,NNW,9.2,-,N/A,,Clear,330,2013-02-03 08:55:00
3:15 AM,17.6,10.4,73,30.16,10.0,NW,9.2,-,N/A,,Clear,320,2013-02-03 09:15:00
3:35 AM,17.6,10.4,73,30.16,10.0,NNW,9.2,-,N/A,,Clear,330,2013-02-03 09:35:00
3:55 AM,17.6,10.4,73,30.14,10.0,NW,9.2,-,N/A,,Clear,320,2013-02-03 09:55:00
4:15 AM,17.6,10.4,73,30.15,10.0,NW,10.4,-,N/A,,Clear,320,2013-02-03 10:15:00
4:35 AM,17.6,10.4,73,30.16,10.0,NW,10.4,-,N/A,,Clear,320,2013-02-03 10:35:00
4:55 AM,15.8,8.6,73,30.17,10.0,WNW,8.1,-,N/A,,Clear,300,2013-02-03 10:55:00
5:15 AM,15.8,8.6,73,30.17,10.0,NW,6.9,-,N/A,,Clear,310,2013-02-03 11:15:00
5:35 AM,14.0,8.6,79,30.16,10.0,WNW,3.5,-,N/A,,Clear,300,2013-02-03 11:35:00
6:15 AM,14.0,8.6,79,30.15,10.0,Calm,Calm,-,N/A,,Clear,0,2013-02-03 12:15:00
6:35 AM,12.2,6.8,79,30.15,10.0,SW,3.5,-,N/A,,Clear,220,2013-02-03 12:35:00
6:55 AM,17.6,8.6,68,30.14,10.0,WNW,5.8,-,N/A,,Mostly Cloudy,290,2013-02-03 12:55:00
7:15 AM,17.6,8.6,68,30.13,10.0,Calm,Calm,-,N/A,,Overcast,0,2013-02-03 13:15:00
7:35 AM,15.8,8.6,73,30.13,10.0,Calm,Calm,-,N/A,,Overcast,0,2013-02-03 13:35:00
7:55 AM,17.6,10.4,73,30.12,10.0,Calm,Calm,-,N/A,,Overcast,0,2013-02-03 13:55:00
8:15 AM,17.6,10.4,73,30.13,10.0,Calm,Calm,-,N/A,,Overcast,0,2013-02-03 14:15:00
8:35 AM,19.4,10.4,68,30.12,10.0,SSW,3.5,-,N/A,,Overcast,210,2013-02-03 14:35:00
8:55 AM,19.4,12.2,74,30.11,10.0,SSW,8.1,-,N/A,,Overcast,210,2013-02-03 14:55:00
9:15 AM,19.4,12.2,74,30.10,10.0,SSW,8.1,-,N/A,,Overcast,200,2013-02-03 15:15:00
9:35 AM,21.2,12.2,68,30.10,10.0,SSW,5.8,-,N/A,,Mostly Cloudy,200,2013-02-03 15:35:00
9:55 AM,24.8,14.0,64,30.09,10.0,SSW,9.2,-,N/A,,Scattered Clouds,200,2013-02-03 15:55:00
10:15 AM,26.6,15.8,64,30.09,10.0,SSW,8.1,-,N/A,,Clear,200,2013-02-03 16:15:00
10:55 AM,28.4,17.6,64,30.08,10.0,SSW,5.8,-,N/A,,Clear,200,2013-02-03 16:55:00
11:15 AM,30.2,17.6,60,30.06,10.0,South,6.9,-,N/A,,Clear,170,2013-02-03 17:15:00
11:35 AM,30.2,19.4,64,30.04,10.0,South,6.9,-,N/A,,Clear,180,2013-02-03 17:35:00
11:55 AM,32.0,19.4,60,30.02,10.0,South,9.2,-,N/A,,Clear,170,2013-02-03 17:55:00
12:15 PM,33.8,21.2,60,30.00,10.0,South,10.4,-,N/A,,Clear,170,2013-02-03 18:15:00
12:35 PM,35.6,23.0,60,29.98,10.0,South,12.7,-,N/A,,Clear,190,2013-02-03 18:35:00
12:55 PM,35.6,24.8,65,29.96,10.0,South,15.0,-,N/A,,Clear,190,2013-02-03 18:55:00
1:15 PM,37.4,26.6,65,29.94,10.0,South,15.0,18.4,N/A,,Clear,190,2013-02-03 19:15:00
1:35 PM,39.2,26.6,61,29.93,10.0,South,13.8,-,N/A,,Clear,190,2013-02-03 19:35:00
1:55 PM,44.6,24.8,46,29.90,10.0,SSW,13.8,19.6,N/A,,Clear,200,2013-02-03 19:55:00
2:15 PM,44.6,24.8,46,29.89,10.0,SSW,11.5,-,N/A,,Clear,200,2013-02-03 20:15:00
2:55 PM,48.2,24.8,40,29.86,10.0,SSW,11.5,-,N/A,,Clear,200,2013-02-03 20:55:00
3:15 PM,48.2,26.6,43,29.85,10.0,SSW,11.5,-,N/A,,Clear,200,2013-02-03 21:15:00
3:35 PM,48.2,26.6,43,29.84,10.0,SSW,10.4,17.3,N/A,,Clear,200,2013-02-03 21:35:00
3:55 PM,48.2,26.6,43,29.83,10.0,SSW,12.7,-,N/A,,Clear,200,2013-02-03 21:55:00
4:15 PM,48.2,26.6,43,29.83,10.0,SSW,10.4,-,N/A,,Clear,200,2013-02-03 22:15:00
4:55 PM,46.4,28.4,50,29.80,10.0,South,9.2,-,N/A,,Clear,180,2013-02-03 22:55:00
5:15 PM,44.6,28.4,53,29.79,10.0,South,10.4,-,N/A,,Clear,170,2013-02-03 23:15:00
5:55 PM,41.0,30.2,65,29.78,10.0,South,11.5,-,N/A,,Clear,170,2013-02-03 23:55:00
6:15 PM,39.2,30.2,70,29.78,10.0,South,9.2,-,N/A,,Clear,170,2013-02-04 00:15:00
6:35 PM,39.2,28.4,65,29.77,10.0,South,10.4,-,N/A,,Clear,190,2013-02-04 00:35:00
6:55 PM,37.4,28.4,70,29.76,10.0,South,10.4,-,N/A,,Clear,190,2013-02-04 00:55:00
7:15 PM,37.4,28.4,70,29.77,10.0,SSW,10.4,-,N/A,,Clear,200,2013-02-04 01:15:00
7:35 PM,35.6,28.4,75,29.77,10.0,Calm,Calm,-,N/A,,Clear,0,2013-02-04 01:35:00
7:55 PM,35.6,28.4,75,29.77,10.0,South,6.9,-,N/A,,Clear,190,2013-02-04 01:55:00
8:15 PM,35.6,28.4,75,29.77,10.0,SSW,5.8,-,N/A,,Clear,200,2013-02-04 02:15:00
8:35 PM,35.6,28.4,75,29.76,10.0,South,3.5,-,N/A,,Clear,180,2013-02-04 02:35:00
8:55 PM,35.6,28.4,75,29.75,10.0,South,5.8,-,N/A,,Clear,180,2013-02-04 02:55:00
9:15 PM,35.6,28.4,75,29.75,10.0,South,5.8,-,N/A,,Clear,180,2013-02-04 03:15:00
9:35 PM,35.6,28.4,75,29.75,10.0,South,4.6,-,N/A,,Clear,190,2013-02-04 03:35:00
9:55 PM,35.6,28.4,75,29.75,10.0,South,3.5,-,N/A,,Clear,190,2013-02-04 03:55:00
10:15 PM,35.6,28.4,75,29.74,10.0,SSW,4.6,-,N/A,,Scattered Clouds,200,2013-02-04 04:15:00
10:55 PM,33.8,28.4,81,29.76,10.0,North,6.9,-,N/A,,Scattered Clouds,360,2013-02-04 04:55:00
11:15 PM,33.8,28.4,81,29.75,10.0,Calm,Calm,-,N/A,,Scattered Clouds,0,2013-02-04 05:15:00
11:35 PM,32.0,28.4,87,29.76,10.0,North,4.6,-,N/A,,Clear,360,2013-02-04 05:35:00
11:55 PM,33.8,28.4,81,29.77,10.0,NNE,13.8,17.3,N/A,,Scattered Clouds,20,2013-02-04 05:55:00